Regional Weather Roundup
Issued by NWS San Angelo, TX

Home | Current Version | Previous Version | Text Only | Print | Product List | Glossary On
Versions: 1 2 3 4 5 6 7 8 9 10 11 12 13 14 15 16 17 18 19 20 21 22 23 24 25 26 27 28 29 30 31 32 33 34 35 36 37 38 39 40 41 42 43 44 45 46 47 48 49 50
000
ASUS44 KSJT 172110
RWRSJT
WEST CENTRAL TEXAS REGIONAL WEATHER ROUNDUP
NATIONAL WEATHER SERVICE SAN ANGELO TX
400 PM CDT TUE OCT 17 2017

NOTE: "FAIR" INDICATES FEW OR NO CLOUDS BELOW 12,000 FEET WITH NO
SIGNIFICANT WEATHER AND/OR OBSTRUCTIONS TO VISIBILITY.

TXZ049-054-064>066-071>073-076>078-098-099-113-114-127-128-139-140-
154-155-168>170-172200
...LOCATIONS ACROSS WEST CENTRAL TEXAS...

CITY           SKY/WX    TMP DP  RH WIND       PRES   REMARKS
SAN ANGELO     SUNNY     81  33  17 S6        30.15F
ABILENE        SUNNY     76  35  22 S13       30.15F
DYESS AFB      SUNNY     78  42  26 S12       30.14F
JUNCTION       SUNNY     81  29  15 CALM      30.17F
SWEETWATER     SUNNY     79  32  18 S10       30.18F
BROWNWOOD      SUNNY     79  36  21 S6        30.17F
COLEMAN        CLEAR     79  34  19 S7        30.17F
SONORA         SUNNY     79  36  21 SW8       30.22F
OZONA          FAIR      79  30  17 S14       30.20F
BRADY          NOT AVBL
$$

TEXAS PANHANDLE/OKLAHOMA PANHANDLE

CITY           SKY/WX    TMP DP  RH WIND       PRES   REMARKS
AMARILLO       SUNNY     83  38  20 SW17G24   30.09F
BORGER         SUNNY     83  39  21 SW14G20   30.06F
CANADIAN       SUNNY     81  44  27 S16G22    30.05F
DALHART        SUNNY     82  31  15 SW10      30.09F
DUMAS          CLEAR     77  33  20 SW13      30.09F
GUYMON         NOT AVBL
HEREFORD       CLEAR     83  38  20 SW14G22   30.12F
PAMPA          CLEAR     83  38  20 S18G24    30.08F
PERRYTON       SUNNY     81  40  23 S10G18    30.04F
$$

SOUTHERN PANHANDLE/SOUTH PLAINS/ROLLING PLAINS

CITY           SKY/WX    TMP DP  RH WIND       PRES   REMARKS
LUBBOCK        MOSUNNY   82  38  20 SW13G22   30.13F
SNYDER         SUNNY     79  33  19 S13       30.16F
CHILDRESS      SUNNY     81  40  23 S16G23    30.10F
SEMINOLE       CLEAR     81  39  22 S12       30.16F
$$

PERMIAN BASIN

CITY           SKY/WX    TMP DP  RH WIND       PRES   REMARKS
MIDLAND        SUNNY     80  36  20 S9        30.16F
ODESSA         NOT AVBL
WINK           SUNNY     80  44  27 SE10      30.13F
$$

FAR WEST/SOUTHWEST MOUNTAINS/TRANS PECOS

CITY           SKY/WX    TMP DP  RH WIND       PRES   REMARKS
ALPINE         CLEAR     81  40  23 CALM      30.27F
DRYDEN           N/A     77  39  25 MISG      30.16F
EL PASO        MOSUNNY   83  43  24 NW3       30.16F
FORT STOCKTON  SUNNY     83  43  24 NE7       30.15F
GUADALUPE PASS SUNNY     77  39  25 SW17G24   30.27F
MARFA          SUNNY     79  42  26 S9        30.25F
PECOS          CLEAR     79  49  33 E7        30.13F
$$

DALLAS/FORT WORTH METROPLEX

CITY           SKY/WX    TMP DP  RH WIND       PRES   REMARKS
DFW AIRPORT    SUNNY     76  39  26 SE9       30.16F
FTW MEACHAM    SUNNY     76  43  30 SE3       30.16F
DAL-EXECUTIVE  SUNNY     75  40  28 E3        30.17F
GRAND PRAIRIE  SUNNY     73  37  27 E79       30.18F
ADDISON        SUNNY     73  39  29 E6        30.18F
MESQUITE       CLEAR     75  37  25 CALM      30.19F
LANCASTER      CLEAR     74  39  27 CALM      30.19F
$$

NORTH CENTRAL TEXAS

CITY           SKY/WX    TMP DP  RH WIND       PRES   REMARKS
SHRMAN/DENISON CLEAR     74  41  31 SE5       30.19F
GAINESVILLE    NOT AVBL
BRIDGEPORT     CLEAR     75  41  28 S6        30.18F
DENTON         SUNNY     74  43  32 SE10      30.17F
WAXAHACHIE     CLEAR     75  42  29 CALM      30.19F
GRANBURY       CLEAR     78  42  27 SE5       30.18F
$$

WESTERN NORTH TEXAS

CITY           SKY/WX    TMP DP  RH WIND       PRES   REMARKS
WICHITA FALLS  SUNNY     77  42  28 S13       30.13F
VERNON         CLEAR     80  27  14 S15       30.11F
BRECKENRIDGE   CLEAR     82  31  15 S8        30.14F HAZE
COMANCHE       SUNNY     79  41  25 SE5       30.17F
$$

CENTRAL AND SOUTH CENTRAL TEXAS

CITY           SKY/WX    TMP DP  RH WIND       PRES   REMARKS
AUSTIN/BERGSTM SUNNY     77  46  33 N6        30.17F
WACO           SUNNY     76  40  27 S6        30.17F
HILLSBORO      CLEAR     76  43  30 S5        30.18F
TEMPLE         SUNNY     78  41  26 VRB3      30.18F
KILLEEN-GRAY   SUNNY     76  42  29 E7        30.17F
FORT HOOD      SUNNY     74  42  31 CALM      30.15F
GEORGETOWN     SUNNY     76  44  32 CALM      30.19F
LAGO VISTA     FAIR      76  44  32 S5        30.20F
SAN MARCOS       N/A    N/A N/A N/A MISG        N/A
NEW BRAUNFELS  SUNNY     79  45  29 VRB5      30.17F
RANDOLPH AFB   SUNNY     77  42  28 CALM      30.17F
SAN ANTONIO    SUNNY     77  44  30 SE5       30.18F
STINSON        SUNNY     79  44  28 CALM      30.16F
PLEASANTON     NOT AVBL
LA GRANGE      SUNNY     78  47  33 CALM      30.14F
GIDDINGS       CLEAR     75  43  31 E3        30.18F
$$

EAST TEXAS

CITY           SKY/WX    TMP DP  RH WIND       PRES   REMARKS
PARIS          SUNNY     72  41  32 SE7       30.19F
CLARKSVILLE    NOT AVBL
TYLER          SUNNY     75  35  23 VRB3      30.18F
LONGVIEW       SUNNY     76  39  26 E7        30.17F
PALESTINE      CLEAR     76  40  27 CALM      30.19F
NACOGDOCHES    SUNNY     75  43  31 VRB5      30.18F
$$

TEXAS HILL COUNTRY AND EDWARDS PLATEAU

CITY           SKY/WX    TMP DP  RH WIND       PRES   REMARKS
LLANO          CLEAR     79  39  24 CALM      30.20F
HORSESHOE BAY  FAIR      78  43  28 CALM      30.18F
KERRVILLE      SUNNY     78  44  29 SW3       30.19F
FREDERICKSBRG  SUNNY     76  39  26 CALM      30.18F
ROCKSPRINGS    NOT AVBL
HONDO          SUNNY     80  41  24 CALM      30.17F
UVALDE         CLEAR     76  40  27 CALM      30.17F
DEL RIO        SUNNY     78  43  28 S9        30.15F
$$

SOUTHEAST TEXAS

CITY           SKY/WX    TMP DP  RH WIND       PRES   REMARKS
COLLEGE STN    SUNNY     77  41  27 VRB3      30.17F
CALDWELL       CLEAR     75  45  33 NE3       30.18F
CROCKETT         N/A     77  39  25 E3        30.20F
BRENHAM        SUNNY     77  42  28 N6        30.17F
HUNTSVILLE     SUNNY     77  39  25 VRB5      30.16F
CONROE         SUNNY     77  42  28 CALM      30.16F
HOUSTON BUSH   SUNNY     79  45  29 N10       30.15F
HOUSTON HOBBY  SUNNY     79  43  27 NE10      30.14F
PERLAND        SUNNY     79  42  26 NE6       30.15F
WHARTON        CLEAR     78  37  23 NE6       30.15F
$$

THE UPPER TEXAS COAST

CITY           SKY/WX    TMP DP  RH WIND       PRES   REMARKS
ORANGE         CLEAR     76  48  36 NE5       30.16S
PORT ARTHUR    SUNNY     77  46  33 N7        30.13F
GALVESTON      SUNNY     76  49  38 N9        30.15F
ANGLETON       SUNNY     80  42  25 N8        30.14F
BAY CITY       CLEAR     80  43  27 NE7       30.14F
$$

TEXAS COASTAL BEND, RIO GRANDE PLAINS DEEP SOUTH TEXAS

CITY           SKY/WX    TMP DP  RH WIND       PRES   REMARKS
VICTORIA       SUNNY     80  44  27 NE5       30.15F
BEEVILLE       FAIR      80  24  12 NE5       30.15F
ROCKPORT       SUNNY     76  55  48 SE6       30.14F
PORT ARANSAS   NOT AVBL
PORT LAVACA    CLEAR     79  39  24 NE9       30.15F
CORPUS CHRISTI SUNNY     82  47  29 N9        30.14F
KINGSVILLE NAS SUNNY     85  40  20 N9        30.13F
COTULLA        SUNNY     80  38  22 VRB6      30.16F
LAREDO         SUNNY     80  43  26 CALM      30.16F
BROWNSVILLE    SUNNY     83  63  50 NE13      30.12F
PORT ISABEL    MOSUNNY   78  64  61 N13       30.12F
HEBBRONVILLE   CLEAR     79  38  23 NW3       30.16F
MCALLEN        SUNNY     85  46  25 N9        30.14F
WESLACO        SUNNY     81  49  33 N5        30.13F
FALFURRIAS     CLEAR     84  35  17 CALM      30.13F
EDINBURG       CLEAR     84  37  18 CALM      30.14F
$$




USA.gov is the U.S. government's official web portal to all federal, state and local government web resources and services.